Other Public Products
Issued by NWS Grand Forks, ND

Home | Current Version | Previous Version | Graphics & Text | Print | Product List | Glossary On
Versions: 1 2 3 4 5 6 7 8 9 10 11 12 13 14 15 16 17 18 19 20 21 22 23 24 25 26 27 28 29 30 31 32 33 34 35 36 37 38 39 40 41 42 43 44 45 46 47 48 49 50
000
FPUS83 KFGF 012010
OPUFGF
PRAIRIE TO PINES WEATHER ROUNDUP
NATIONAL WEATHER SERVICE EASTERN NORTH DAKOTA/GRAND FORKS ND
200 PM CST SUN MAR 01 2015

 **SATELLITE DATA USED TO AUGMENT SKY COVER AT AUTOMATED STATIONS**
 *****  WEATHER ACROSS EASTERN NORTH DAKOTA  *****

CITY           SKY/WX    TMP DP  RH WIND       PRES   REMARKS
GRAND FORKS    PTSUNNY   20  10  65 NW14      30.22R WCI   7
GRAND FORKS AF PTSUNNY   20   9  62 NW16      30.23R WCI   5
GRAND CITY NWS   N/A     23 N/A N/A N14         N/A  WCI  11
BUXTON         NOT AVBL
DEVILS LAKE    SUNNY     16   9  73 NW16      30.23R WCI   0
FARGO          CLOUDY    22  12  65 NW15      30.22S WCI   9
WAHPETON ARPT  CLOUDY    25  14  63 NW21      30.23S WCI  10
$$

 *****  WEATHER ACROSS CENTRAL AND WESTERN NORTH DAKOTA  *****

CITY           SKY/WX    TMP DP  RH WIND       PRES   REMARKS
JAMESTOWN      MOSUNNY   21  12  68 NW17      30.23  WCI   7
BISMARCK       FLURRIES  24  14  65 NW20      30.29S WCI  10
MINOT          SUNNY     21  10  62 W18       30.27  WCI   6
MINOT AFB      SUNNY     19  14  81 NW18      30.27R WCI   4
GARRISON         N/A     21  13  71 NW17      30.27  WCI   7
WILLISTON      MOSUNNY   24  12  60 NW15      30.30  WCI  11
DICKINSON      CLOUDY    24   9  52 NW16      30.23  WCI  11
HETTINGER      CLOUDY    24  10  55 W16       30.27  WCI  11
$$

 *****  OTHER OBSERVATIONS NORTHEAST NORTH DAKOTA  *****

CITY           SKY/WX    TMP DP  RH WIND       PRES   REMARKS
WALHALLA         N/A     18  10  73 NW13      30.23S WCI   4
LANGDON        NOT AVBL
CAVALIER       FAIR      18   9  68 NW13      30.23R WCI   4
GRAFTON        NOT AVBL
CANDO          FAIR      18   9  68 W10       30.23S WCI   6
FORT TOTTEN    NOT AVBL
ROLLA          FAIR      16   7  67 NW23      30.20S WCI  -2
RUGBY          MOCLDY    16   9  73 NW18      30.25R WCI  -1
 ***** THE ABOVE OBSERVATIONS ARE NON NWS ARE NOT QUALITY
        CONTROLLED AND MAY MIS-REPORT RAIN FOR SNOW...
$$

 *****  OTHER OBSERVATIONS SOUTHEAST NORTH DAKOTA *****

CITY           SKY/WX    TMP DP  RH WIND       PRES   REMARKS
COOPERSTOWN    NOT AVBL
VALLEY CITY    FLURRIES  19  14  79 NW20G28   30.22S WCI   4
OAKES            N/A     23  14  68 NW23G30   30.24S WCI   7
GWINNER        PTCLDY    27  16  63 NW20G26   30.24S WCI  13
BUFFALO        NOT AVBL
WYNDMERE         N/A     25  16  68 NW15        N/A  WCI  12
 ***** THE ABOVE OBSERVATIONS ARE NON NWS ARE NOT QUALITY
       CONTROLLED AND MAY MIS-REPORT RAIN FOR SNOW...
$$

  *****  WEATHER ACROSS NORTHERN MINNESOTA  *****

CITY           SKY/WX    TMP DP  RH WIND       PRES   REMARKS
FLAG ISLAND    PTSUNNY   18   7  62 NW14      30.09S WCI   4
WARROAD        CLOUDY    16   9  73 SW14      30.12S WCI   1
ROSEAU         PTSUNNY   16   9  73 W12G18    30.14S WCI   3
HALLOCK        CLOUDY    18  10  73 NW14      30.21R WCI   4
THF RVR FALLS  PTSUNNY   12   9  85 W12       30.19R WCI  -2
HALSTAD        NOT AVBL
FOSSTON        LGT SNOW  18   9  68 W12       30.18S WCI   5
BAUDETTE       PTSUNNY   18   5  57 W10       30.09  WCI   6
WASKISH        PTSUNNY   16   9  73 SW12      30.13S HAZE    WCI   3
CROOKSTON      LGT SNOW  18  12  79 NW14      30.22S WCI   4
$$
  *****  WEATHER ACROSS CENTRAL AND WEST MINNESOTA  *****

CITY           SKY/WX    TMP DP  RH WIND       PRES   REMARKS
BEMIDJI        MOSUNNY   17   8  67 W15       30.13S WCI   3
PARK RAPIDS    CLOUDY    20  10  65 W15       30.13  WCI   6
WADENA         LGT SNOW  19  10  68 W10G18    30.17S WCI   8
DETROIT LAKES  MIX PCPN  19  12  73 W8        30.18F WCI   9
MOORHEAD       FLURRIES  21  18  86 NW16      30.23S WCI   7
FERGUS FALLS   LGT SNOW  21  14  73 W16G22    30.24S WCI   7
ELBOW LAKE     MOCLDY    23  13  64 W17       30.21S WCI   9
MORRIS MN      MOSUNNY   27  12  54 W20       30.22S WCI  13
STAPLES        CLOUDY    21  10  63 W18       30.17S WCI   6
WHEATON        NOT AVBL
$$
  *****  WEATHER ELSEWHERE ACROSS MINNESOTA  *****

CITY           SKY/WX    TMP DP  RH WIND       PRES   REMARKS
DULUTH         MOSUNNY   22   4  46 W18G25    30.06  WCI   7
INTRNTL FALLS  MOSUNNY   17   4  56 W12       30.07  WCI   4
ELY            NOT AVBL
CLOQUET        SUNNY     21   1  42 W16G24    30.09F WCI   7
BRAINERD       MOSUNNY   22   6  50 W13G20    30.16  WCI  10
HIBBING        CLOUDY    21   6  52 W14G22    30.07  WCI   8
ALEXANDRIA     SUNNY     22   9  57 W15       30.19  WCI   9
SAINT CLOUD    CLOUDY    25   8  48 W17       30.20  WCI  12
MINNEAPOLIS    MOSUNNY   25   7  46 W17       30.23  WCI  12
$$

  *****  WEATHER ACROSS SOUTH DAKOTA  *****

CITY           SKY/WX    TMP DP  RH WIND       PRES   REMARKS
SIOUX FALLS    MOSUNNY   32  12  43 W16G26    30.28  WCI  21
BROOKINGS      NOT AVBL
WATERTOWN      PTSUNNY   27  16  63 W21       30.22  WCI  13
HURON          MOSUNNY   30  18  60 NW21      30.30  WCI  17
SISSETON         N/A     27  17  66 NW23      30.23  WCI  12
ABERDEEN       CLOUDY    28  17  63 NW15      30.29R WCI  16
MITCHELL       PTSUNNY   36   9  32 NW25G32   30.31
PIERRE         PTSUNNY   33   9  36 NW25      30.29  WCI  20
MOBRIDGE       MIX PCPN  30  16  56 NW17      30.25  WCI  18
RAPID CITY     SUNNY     28  12  51 N24       30.26  WCI  14
$$

  *****  SOME WEATHER IN NEARBY STATES *****

CITY           SKY/WX    TMP DP  RH WIND       PRES   REMARKS
GLASGOW MT     CLOUDY    26  10  50 NW5       30.29  WCI  20
GREAT FALLS MT SUNNY     34  12  40 S16       30.14  WCI  24
CHEYENNE WY    MOSUNNY   25  12  58 VRB6      30.15F WCI  18
SCOTTSBLUFF NE PTSUNNY   33  12  41 N6        30.26
OMAHA NE       MOSUNNY   36  16  44 VRB3      30.36
DES MOINES IA  MOSUNNY   32  17  54 NW13      30.34  WCI  22
DAVENPORT IA   MOSUNNY   24  16  71 W13       30.34F WCI  12
CHICAGO IL     PTSUNNY   24  16  71 W10       30.29F WCI  14
EAU CLAIRE WI  SUNNY     24   9  52 W13       30.19F WCI  12
LA CROSSE WI   SUNNY     27  13  55 W16       30.25F WCI  15
$$

  *****  SOME NATIONAL WEATHER *****

CITY           SKY/WX    TMP DP  RH WIND       PRES   REMARKS
LA GUARDIA NY  HVY SNOW  25  21  86 S8        30.45F VSB 1/4 WCI  16
RALEIGH NC     LGT RAIN  34  30  86 VRB3      30.44S FOG
ATLANTA GA     FOG       44  41  89 CALM      30.40  VSB 1
NEW ORLEANS LA CLOUDY    65  59  81 E6        30.26  HAZE
OKLAHOMA CITY  CLOUDY    32  27  81 N9        30.35  WCI  24
ALBUQUERQUE NM MOSUNNY   51  38  60 W3        30.09
SALT LAKE CITY PTSUNNY   44  29  55 VRB6      30.08
LOS ANGELES CA PTSUNNY   62  46  55 SE12      29.92
BOISE ID       SUNNY     41  17  38 S8G16     30.19
SEATTLE WA     PTSUNNY   50  32  50 S3        30.17
$$

*** WEATHER ACROSS MANITOBA...SASKATCHEWAN AND ONTARIO ***
                ***ONTARIO***

CITY           SKY/WX    TMP DP  RH WIND       PRES   REMARKS
GERALDTON      FLURRIES  19   7  58 W14       29.88F WCI   6
THUNDER BAY    PTSUNNY   25   7  46 W14G21    29.98F WCI  13
SIOUX LOOKOUT  PTSUNNY   16   3  57 W10G18    29.96F WCI   3
TORONTO        CLOUDY    25  18  74 SE6       30.23F WCI  18
BIG TROUT LK   PTSUNNY    7  -4  61 W14G21    29.85F WCI -10
PICKLE LAKE    FLURRIES  18   7  62 W10G22    29.85S WCI   6
DRYDEN         CLOUDY    18   7  62 NW12      29.99R WCI   5
KENORA         PTSUNNY   14   3  62 NW10G20   30.05S WCI   1
$$
                *** MANITOBA***

CITY           SKY/WX    TMP DP  RH WIND       PRES   REMARKS
BRANDON        MOSUNNY   16   9  73 W17       30.22S WCI   0
DAUPHIN        PTSUNNY   19  10  68 W18       30.18R WCI   4
ISLAND LAKE    PTSUNNY    9  -4  56 W16       29.97S WCI  -9
PILOT MOUND      N/A     16   7  67 W8          N/A  WCI   5
THE PAS        SUNNY     14  -2  48 NW18G24   30.15F WCI  -3
THOMPSON       MOSUNNY    1 -15  46 NW14      30.05S WCI -17
WINNIPEG       MOSUNNY   16   7  67 W14       30.20S WCI   1
LYNN LAKE      SUNNY      1 -13  51 NW15      30.06F WCI -18
GILLAM         SUNNY     -6 -18  54 NW14G23   30.00R WCI -26
$$
                ***SASKATCHEWAN***

CITY           SKY/WX    TMP DP  RH WIND       PRES   REMARKS
ESTEVAN        MOSUNNY   18  12  79 W12       30.27S WCI   5
KINDERSLEY     MOSUNNY   21  14  73 S10       30.18F WCI  10
LLOYDMINSTER   MOSUNNY   16  10  79 S7        30.12F WCI   6
PRINCE ALBERT  SUNNY     18   1  49 NW8       30.22F WCI   7
REGINA         PTSUNNY   16  12  86 W17       30.26F WCI   0
YORKTON        SUNNY     16   7  67 NW16G22   30.20S WCI   0
N. BATTLEFORD  SUNNY     14  10  85 E3        30.22F


USA.gov is the U.S. government's official web portal to all federal, state and local government web resources and services.